TimeCST,TemperatureF,Dew PointF,Humidity,Sea Level PressureIn,VisibilityMPH,Wind Direction,Wind SpeedMPH,Gust SpeedMPH,PrecipitationIn,Events,Conditions,WindDirDegrees,DateUTC
12:53 AM,66.9,64.9,93,30.08,10.0,Calm,Calm,-,N/A,,Clear,0,2012-11-04 05:53:00
1:53 AM,66.9,64.9,93,30.07,10.0,Calm,Calm,-,N/A,,Clear,0,2012-11-04 06:53:00
1:53 AM,63.0,61.0,93,30.07,7.0,Calm,Calm,-,N/A,,Clear,0,2012-11-04 07:53:00
1:57 AM,62.6,60.8,94,30.07,2.0,Calm,Calm,-,N/A,,Partly Cloudy,0,2012-11-04 07:57:00
2:00 AM,62.6,60.8,94,30.07,1.0,Calm,Calm,-,N/A,,Mist,0,2012-11-04 08:00:00
2:06 AM,62.6,60.8,94,30.07,0.2,Calm,Calm,-,N/A,Fog,Fog,0,2012-11-04 08:06:00
2:47 AM,60.8,60.8,100,30.07,1.0,Calm,Calm,-,N/A,,Mist,0,2012-11-04 08:47:00
2:53 AM,61.0,60.1,97,30.06,3.0,Calm,Calm,-,N/A,,Scattered Clouds,0,2012-11-04 08:53:00
3:13 AM,60.8,60.8,100,30.06,2.0,Calm,Calm,-,N/A,,Mostly Cloudy,0,2012-11-04 09:13:00
3:16 AM,59.0,59.0,100,30.06,0.8,Calm,Calm,-,N/A,,Mist,0,2012-11-04 09:16:00
3:28 AM,59.0,57.2,94,30.06,0.2,Calm,Calm,-,N/A,Fog,Fog,0,2012-11-04 09:28:00
3:36 AM,59.0,59.0,100,30.06,0.5,Calm,Calm,-,N/A,Fog,Fog,0,2012-11-04 09:36:00
3:53 AM,57.9,57.9,100,30.07,0.2,Calm,Calm,-,N/A,Fog,Fog,0,2012-11-04 09:53:00
4:50 AM,60.8,60.8,100,30.08,0.5,Calm,Calm,-,N/A,Fog,Fog,0,2012-11-04 10:50:00
4:53 AM,60.1,60.1,100,30.08,0.5,Calm,Calm,-,N/A,Fog,Fog,0,2012-11-04 10:53:00
5:04 AM,60.8,60.8,100,30.08,0.2,Calm,Calm,-,N/A,Fog,Fog,0,2012-11-04 11:04:00
5:53 AM,60.1,60.1,100,30.09,0.5,Calm,Calm,-,N/A,Fog,Fog,0,2012-11-04 11:53:00
5:54 AM,60.8,60.8,100,30.09,0.2,Calm,Calm,-,N/A,Fog,Fog,0,2012-11-04 11:54:00
6:01 AM,60.8,60.8,100,30.09,0.2,Calm,Calm,-,N/A,Fog,Fog,0,2012-11-04 12:01:00
6:10 AM,60.8,60.8,100,30.09,0.2,Calm,Calm,-,N/A,Fog,Fog,0,2012-11-04 12:10:00
6:50 AM,60.8,60.8,100,30.10,0.2,Calm,Calm,-,N/A,Fog,Fog,0,2012-11-04 12:50:00
6:53 AM,60.1,60.1,100,30.10,0.2,Calm,Calm,-,N/A,Fog,Fog,0,2012-11-04 12:53:00
7:53 AM,63.0,63.0,100,30.11,0.2,Calm,Calm,-,N/A,Fog,Fog,0,2012-11-04 13:53:00
8:24 AM,62.6,62.6,100,30.13,1.0,North,6.9,-,N/A,,Mostly Cloudy,360,2012-11-04 14:24:00
8:28 AM,62.6,62.6,100,30.13,3.0,North,6.9,-,N/A,,Mostly Cloudy,10,2012-11-04 14:28:00
8:46 AM,64.4,64.4,100,30.12,6.0,North,5.8,-,N/A,,Scattered Clouds,360,2012-11-04 14:46:00
8:53 AM,66.0,64.0,93,30.12,6.0,North,5.8,-,N/A,,Scattered Clouds,360,2012-11-04 14:53:00
9:53 AM,73.9,64.9,73,30.11,10.0,North,8.1,-,N/A,,Partly Cloudy,10,2012-11-04 15:53:00
10:53 AM,75.0,63.0,66,30.09,10.0,North,8.1,-,N/A,,Scattered Clouds,360,2012-11-04 16:53:00
11:53 AM,73.0,61.0,66,30.07,10.0,NNE,5.8,-,N/A,,Scattered Clouds,30,2012-11-04 17:53:00
11:54 AM,73.4,60.8,65,30.07,10.0,NNE,6.9,-,N/A,Thunderstorm,Thunderstorm,30,2012-11-04 17:54:00
12:23 PM,64.4,60.8,88,30.09,1.8,NW,15.0,27.6,0.07,Rain-Thunderstorm,Heavy Thunderstorms and Rain,320,2012-11-04 18:23:00
12:53 PM,64.9,62.1,90,30.08,6.0,NNW,5.8,-,0.13,Rain,Light Rain,340,2012-11-04 18:53:00
1:53 PM,64.9,61.0,87,30.07,10.0,SSE,5.8,-,0.01,Rain,Light Rain,150,2012-11-04 19:53:00
2:53 PM,64.9,62.1,90,30.06,10.0,South,4.6,-,0.01,Rain,Light Rain,190,2012-11-04 20:53:00
3:53 PM,66.0,60.1,81,30.04,10.0,South,4.6,-,0.00,,Mostly Cloudy,190,2012-11-04 21:53:00
4:53 PM,64.0,61.0,90,30.04,10.0,NNW,4.6,-,N/A,,Mostly Cloudy,330,2012-11-04 22:53:00
5:53 PM,64.0,61.0,90,30.04,10.0,North,6.9,-,N/A,,Scattered Clouds,350,2012-11-04 23:53:00
6:53 PM,63.0,61.0,93,30.06,10.0,North,3.5,-,N/A,,Clear,350,2012-11-05 00:53:00
7:53 PM,60.1,59.0,96,30.06,10.0,NNW,4.6,-,N/A,,Clear,340,2012-11-05 01:53:00
8:53 PM,60.1,59.0,96,30.07,10.0,NNW,5.8,-,N/A,,Clear,340,2012-11-05 02:53:00
9:53 PM,59.0,57.9,96,30.07,9.0,North,3.5,-,N/A,,Clear,350,2012-11-05 03:53:00
10:53 PM,59.0,57.9,96,30.07,9.0,NNW,3.5,-,N/A,,Clear,340,2012-11-05 04:53:00